Key West International Airport
KEYW : now visible

Airfield :











YOU CAN JOIN US ON...

 
LOGIN :

Register | Disclaimer

   EN    FR    IT 

 









Legend :    VFR   Marginal VFR   IFR   Intensive IFR   Very Intensive IFR
Visi :
Ceiling :
>= 8 km
>= 3000ft
5 to 8 km
1000 to 3000 ft
1500m to 5 km
500 to 1000 ft
800 to 1500m
200 to 500 ft
< 800m
< 200 ft
Symbols :   Thunderstorms  Fog  Heavy snow  Heavy precipitations  Wind > 20 kt






- Airport Elevation : 3 ft
- IATA code : EYW


KEYW - Key West International

CURRENT METAR :
  • 261553Z 13014KT 10SM FEW010 29/25 A2997 RMK AO2 SLP147 T02890250

EXPIRED METARs :
  • 261453Z 12011KT 10SM SCT017 29/25 A2997 RMK AO2 SLP149 T02890250 51023
  • 261353Z 13009KT 10SM FEW017 28/24 A2995 RMK AO2 SLP142 T02830244

TAF KEYW
Valid from the 26 at 15:00 until the 27 at 12:00 UTC


261505Z 2615/2712 13010KT P6SM SCT020 SCT035
FM261600 14013G19KT P6SM VCSH SCT025 SCT050 BKN100
FM262200 13012G19KT P6SM SCT020 SCT050 SCT120
KZMA FIR / North America



MET'MAP, your aeronautical weather chart ! - Copyright ORBIFLY December 2007 - Disclaimer

ORBIFLY MET'MAP TEAM :

Programming & Development : Alexandra Zaïnal
Concept & original design : Baudouin d'Aumeries
Assistance for programming : Marc-Olivier Méhu
Technical & hardware support : Manuel Goepfert

Contact : metmap@orbifly.com




SOURCES & CREDITS :

   NOAA       Earth
Advisory